Time,TemperatureF,DewpointF,PressureIn,WindDirection,WindDirectionDegrees,WindSpeedMPH,WindSpeedGustMPH,Humidity,HourlyPrecipIn,Conditions,Clouds,dailyrainin,SoftwareType,DateUTC
2013-08-05 00:00:00,71.1,40.5,30.14,SSE,156,2.7,8.7,33,0.00,,BKN220,0.00,VWS V13.01,2013-08-05 06:00:00,
2013-08-05 00:02:00,71.1,40.5,30.14,SSE,149,5.4,5.4,33,0.00,,BKN120,0.00,VWS V13.01,2013-08-05 06:02:00,
2013-08-05 00:07:00,71.4,40.8,30.14,NW,309,7.2,8.3,33,0.00,,BKN120,0.00,VWS V13.01,2013-08-05 06:07:00,
2013-08-05 00:12:00,71.6,40.2,30.14,WSW,237,4.0,11.0,32,0.00,,BKN120,0.00,VWS V13.01,2013-08-05 06:12:00,
2013-08-05 00:15:00,71.6,40.2,30.14,SW,232,4.0,11.0,32,0.00,,BKN220,0.00,VWS V13.01,2013-08-05 06:15:00,
2013-08-05 00:17:00,71.6,40.2,30.14,SW,236,3.1,8.3,32,0.00,,BKN140,0.00,VWS V13.01,2013-08-05 06:17:00,
2013-08-05 00:22:00,71.6,40.2,30.14,SSW,199,3.6,8.3,32,0.00,,BKN140,0.00,VWS V13.01,2013-08-05 06:22:00,
2013-08-05 00:27:00,71.4,40.8,30.14,SSE,147,3.1,8.3,33,0.00,,BKN140,0.00,VWS V13.01,2013-08-05 06:27:00,
2013-08-05 00:32:00,71.1,40.5,30.14,SSE,158,2.2,4.0,33,0.00,,BKN140,0.00,VWS V13.01,2013-08-05 06:32:00,
2013-08-05 00:37:00,70.9,40.4,30.14,WSW,240,0.0,8.1,33,0.00,,BKN140,0.00,VWS V13.01,2013-08-05 06:37:00,
2013-08-05 00:42:00,70.9,40.4,30.14,WSW,237,3.1,8.1,33,0.00,,BKN140,0.00,VWS V13.01,2013-08-05 06:42:00,
2013-08-05 00:47:00,70.7,40.2,30.14,South,181,0.0,4.0,33,0.00,,BKN140,0.00,VWS V13.01,2013-08-05 06:47:00,
2013-08-05 00:52:00,70.3,39.9,30.14,West,265,0.0,4.0,33,0.00,,BKN140,0.00,VWS V13.01,2013-08-05 06:52:00,
2013-08-05 00:57:00,70.2,39.7,30.14,West,264,0.0,6.3,33,0.00,,BKN140,0.00,VWS V13.01,2013-08-05 06:57:00,
2013-08-05 01:00:00,70.2,39.7,30.14,West,264,0.0,6.3,33,0.00,,BKN220,0.00,VWS V13.01,2013-08-05 07:00:00,
2013-08-05 01:02:00,70.0,40.3,30.14,West,261,0.0,2.7,34,0.00,,BKN140,0.00,VWS V13.01,2013-08-05 07:02:00,
2013-08-05 01:07:00,69.8,40.2,30.14,West,261,0.0,2.7,34,0.00,,BKN140,0.00,VWS V13.01,2013-08-05 07:07:00,
2013-08-05 01:12:00,69.1,40.3,30.14,West,261,0.0,2.7,35,0.00,,BKN140,0.00,VWS V13.01,2013-08-05 07:12:00,
2013-08-05 01:15:00,68.7,40.0,30.14,West,261,0.0,2.7,35,0.00,,BKN220,0.00,VWS V13.01,2013-08-05 07:15:00,
2013-08-05 01:18:00,68.4,39.7,30.14,West,260,0.0,0.0,35,0.00,,SCT140,0.00,VWS V13.01,2013-08-05 07:18:00,
2013-08-05 01:22:00,67.8,40.6,30.14,West,260,0.0,0.0,37,0.00,,SCT140,0.00,VWS V13.01,2013-08-05 07:22:00,
2013-08-05 01:28:00,67.1,40.7,30.11,West,261,0.0,0.0,38,0.00,,SCT140,0.00,VWS V13.01,2013-08-05 07:28:00,
2013-08-05 01:30:00,66.9,41.2,30.11,West,260,0.0,0.0,39,0.00,,BKN220,0.00,VWS V13.01,2013-08-05 07:30:00,
2013-08-05 01:33:00,66.7,41.0,30.11,West,261,0.0,0.0,39,0.00,,SCT140,0.00,VWS V13.01,2013-08-05 07:33:00,
2013-08-05 01:38:00,66.2,41.8,30.11,West,260,0.0,0.0,41,0.00,,SCT140,0.00,VWS V13.01,2013-08-05 07:38:00,
2013-08-05 01:42:00,66.0,42.3,30.11,SSW,207,0.0,4.0,42,0.00,,SCT140,0.00,VWS V13.01,2013-08-05 07:42:00,
2013-08-05 01:45:00,66.2,42.5,30.11,SSW,207,0.0,4.0,42,0.00,,BKN220,0.00,VWS V13.01,2013-08-05 07:45:00,
2013-08-05 01:47:00,66.4,42.0,30.11,SE,135,2.2,3.1,41,0.00,,SCT140,0.00,VWS V13.01,2013-08-05 07:47:00,
2013-08-05 01:53:00,66.6,42.2,30.11,SE,145,3.1,3.6,41,0.00,,SCT140,0.00,VWS V13.01,2013-08-05 07:53:00,
2013-08-05 01:58:00,66.7,41.7,30.11,SE,131,2.7,4.0,40,0.00,,SCT140,0.00,VWS V13.01,2013-08-05 07:58:00,
2013-08-05 02:00:00,66.9,41.8,30.11,SE,146,2.2,5.8,40,0.00,,BKN220,0.00,VWS V13.01,2013-08-05 08:00:00,
2013-08-05 02:03:00,66.9,41.8,30.11,SSE,164,2.7,4.9,40,0.00,,SCT140,0.00,VWS V13.01,2013-08-05 08:03:00,
2013-08-05 02:07:00,67.3,41.5,30.11,SSE,149,2.7,6.3,39,0.00,,SCT140,0.00,VWS V13.01,2013-08-05 08:07:00,
2013-08-05 02:12:00,67.5,41.7,30.11,SE,127,2.7,6.3,39,0.00,,SCT140,0.00,VWS V13.01,2013-08-05 08:12:00,
2013-08-05 02:17:00,67.5,41.0,30.11,SSW,211,2.7,4.9,38,0.00,,SCT140,0.00,VWS V13.01,2013-08-05 08:17:00,
2013-08-05 02:23:00,67.6,41.2,30.11,SSE,150,2.7,5.4,38,0.00,,SCT140,0.00,VWS V13.01,2013-08-05 08:23:00,
2013-08-05 02:27:00,67.6,41.2,30.11,SE,143,2.2,5.4,38,0.00,,SCT140,0.00,VWS V13.01,2013-08-05 08:27:00,
2013-08-05 02:30:00,67.5,41.0,30.11,SE,134,2.7,5.4,38,0.00,,BKN220,0.00,VWS V13.01,2013-08-05 08:30:00,
2013-08-05 02:33:00,67.3,40.8,30.11,SE,141,2.7,2.7,38,0.00,,SCT140,0.00,VWS V13.01,2013-08-05 08:33:00,
2013-08-05 02:38:00,67.1,40.7,30.11,SE,138,0.0,3.6,38,0.00,,SCT140,0.00,VWS V13.01,2013-08-05 08:38:00,
2013-08-05 02:43:00,66.9,40.5,30.11,WSW,251,0.0,3.6,38,0.00,,SCT140,0.00,VWS V13.01,2013-08-05 08:43:00,
2013-08-05 02:45:00,66.9,40.5,30.11,WSW,251,0.0,3.6,38,0.00,,BKN220,0.00,VWS V13.01,2013-08-05 08:45:00,
2013-08-05 02:48:00,66.7,40.3,30.11,WSW,251,0.0,0.0,38,0.00,,SCT140,0.00,VWS V13.01,2013-08-05 08:48:00,
2013-08-05 02:53:00,66.4,40.7,30.11,WSW,251,0.0,0.0,39,0.00,,SCT140,0.00,VWS V13.01,2013-08-05 08:53:00,
2013-08-05 02:59:00,66.0,41.0,30.11,WSW,251,0.0,0.0,40,0.00,,SCT140,0.00,VWS V13.01,2013-08-05 08:59:00,
2013-08-05 03:00:00,65.8,40.9,30.11,WSW,251,0.0,0.0,40,0.00,,BKN220,0.00,VWS V13.01,2013-08-05 09:00:00,
2013-08-05 03:04:00,65.5,41.2,30.11,WSW,251,0.0,0.0,41,0.00,,SCT140,0.00,VWS V13.01,2013-08-05 09:04:00,
2013-08-05 03:08:00,64.9,40.7,30.11,WSW,251,0.0,0.0,41,0.00,,SCT140,0.00,VWS V13.01,2013-08-05 09:08:00,
2013-08-05 03:14:00,64.4,41.4,30.08,WSW,251,0.0,0.0,43,0.00,,SCT140,0.00,VWS V13.01,2013-08-05 09:14:00,
2013-08-05 03:19:00,64.0,41.7,30.08,WSW,251,0.0,0.0,44,0.00,,FEW140,0.00,VWS V13.01,2013-08-05 09:19:00,
2013-08-05 03:24:00,63.9,41.5,30.08,WSW,251,0.0,0.0,44,0.00,,FEW140,0.00,VWS V13.01,2013-08-05 09:24:00,
2013-08-05 03:29:00,63.5,41.8,30.08,WSW,251,0.0,0.0,45,0.00,,FEW140,0.00,VWS V13.01,2013-08-05 09:29:00,
2013-08-05 03:34:00,63.3,41.6,30.08,WSW,251,0.0,0.0,45,0.00,,FEW140,0.00,VWS V13.01,2013-08-05 09:34:00,
2013-08-05 03:39:00,63.3,42.2,30.08,WSW,251,0.0,2.2,46,0.00,,FEW140,0.00,VWS V13.01,2013-08-05 09:39:00,
2013-08-05 03:44:00,63.5,42.4,30.08,SW,229,0.0,2.2,46,0.00,,FEW140,0.00,VWS V13.01,2013-08-05 09:44:00,
2013-08-05 03:45:00,63.5,42.4,30.08,SW,229,0.0,2.2,46,0.00,,BKN220,0.00,VWS V13.01,2013-08-05 09:45:00,
2013-08-05 03:49:00,63.5,42.4,30.08,SW,229,0.0,0.0,46,0.00,,FEW140,0.00,VWS V13.01,2013-08-05 09:49:00,
2013-08-05 03:55:00,63.1,42.0,30.08,SW,229,0.0,0.0,46,0.00,,FEW140,0.00,VWS V13.01,2013-08-05 09:55:00,
2013-08-05 04:00:00,63.1,42.0,30.08,SW,229,0.0,0.0,46,0.00,,FEW140,0.00,VWS V13.01,2013-08-05 10:00:00,
2013-08-05 04:05:00,63.1,42.0,30.08,SW,229,0.0,0.0,46,0.00,,FEW140,0.00,VWS V13.01,2013-08-05 10:05:00,
2013-08-05 04:10:00,63.1,42.0,30.08,SW,229,0.0,0.0,46,0.00,,FEW140,0.00,VWS V13.01,2013-08-05 10:10:00,
2013-08-05 04:15:00,63.1,42.0,30.08,SW,229,0.0,0.0,46,0.00,,FEW140,0.00,VWS V13.01,2013-08-05 10:15:00,
2013-08-05 04:20:00,63.1,42.0,30.08,SW,229,0.0,2.7,46,0.00,,FEW140,0.00,VWS V13.01,2013-08-05 10:20:00,
2013-08-05 04:26:00,63.1,42.0,30.08,SW,229,0.0,2.7,46,0.00,,FEW140,0.00,VWS V13.01,2013-08-05 10:26:00,
2013-08-05 04:30:00,63.1,42.0,30.08,SW,229,0.0,2.7,46,0.00,,BKN220,0.00,VWS V13.01,2013-08-05 10:30:00,
2013-08-05 04:31:00,63.1,42.0,30.08,SW,229,0.0,0.0,46,0.00,,FEW140,0.00,VWS V13.01,2013-08-05 10:31:00,
2013-08-05 04:37:00,63.1,41.5,30.08,SW,229,0.0,0.0,45,0.00,,FEW140,0.00,VWS V13.01,2013-08-05 10:37:00,
2013-08-05 04:42:00,63.0,41.3,30.08,SW,229,0.0,0.0,45,0.00,,FEW140,0.00,VWS V13.01,2013-08-05 10:42:00,
2013-08-05 04:45:00,63.0,41.3,30.08,SW,229,0.0,0.0,45,0.00,,BKN220,0.00,VWS V13.01,2013-08-05 10:45:00,
2013-08-05 04:47:00,62.8,41.2,30.08,SW,229,0.0,0.0,45,0.00,,FEW140,0.00,VWS V13.01,2013-08-05 10:47:00,
2013-08-05 04:52:00,62.4,41.4,30.08,SW,218,0.0,0.0,46,0.00,,FEW140,0.00,VWS V13.01,2013-08-05 10:52:00,
2013-08-05 04:57:00,62.2,41.8,30.08,SW,218,0.0,0.0,47,0.00,,FEW140,0.00,VWS V13.01,2013-08-05 10:57:00,
2013-08-05 05:00:00,62.2,41.8,30.08,SW,218,0.0,0.0,47,0.00,,BKN220,0.00,VWS V13.01,2013-08-05 11:00:00,
2013-08-05 05:03:00,62.2,41.8,30.08,SW,218,0.0,0.0,47,0.00,,FEW140,0.00,VWS V13.01,2013-08-05 11:03:00,
2013-08-05 05:07:00,62.4,41.4,30.08,SW,218,0.0,0.0,46,0.00,,FEW140,0.00,VWS V13.01,2013-08-05 11:07:00,
2013-08-05 05:13:00,62.4,41.4,30.08,SW,218,0.0,0.0,46,0.00,,FEW140,0.00,VWS V13.01,2013-08-05 11:13:00,
2013-08-05 05:15:00,62.4,41.4,30.08,SW,218,0.0,0.0,46,0.00,,BKN220,0.00,VWS V13.01,2013-08-05 11:15:00,
2013-08-05 05:18:00,62.4,41.4,30.08,SW,218,0.0,0.0,46,0.00,,FEW140,0.00,VWS V13.01,2013-08-05 11:18:00,
2013-08-05 05:24:00,62.4,41.4,30.08,SW,218,0.0,0.0,46,0.00,,FEW140,0.00,VWS V13.01,2013-08-05 11:24:00,
2013-08-05 05:28:00,62.4,41.4,30.08,SW,218,0.0,0.0,46,0.00,,FEW140,0.00,VWS V13.01,2013-08-05 11:28:00,
2013-08-05 05:30:00,62.4,41.4,30.08,SW,218,0.0,0.0,46,0.00,,BKN220,0.00,VWS V13.01,2013-08-05 11:30:00,
2013-08-05 05:34:00,62.4,41.4,30.08,SW,218,0.0,0.0,46,0.00,,FEW140,0.00,VWS V13.01,2013-08-05 11:34:00,
2013-08-05 05:39:00,62.2,41.2,30.08,SW,218,0.0,0.0,46,0.00,,FEW140,0.00,VWS V13.01,2013-08-05 11:39:00,
2013-08-05 05:44:00,62.2,41.2,30.08,SW,218,0.0,0.0,46,0.00,,FEW140,0.00,VWS V13.01,2013-08-05 11:44:00,
2013-08-05 05:45:00,62.2,41.2,30.08,SW,218,0.0,0.0,46,0.00,,BKN220,0.00,VWS V13.01,2013-08-05 11:45:00,
2013-08-05 05:49:00,62.2,41.2,30.08,SW,219,0.0,0.0,46,0.00,,FEW140,0.00,VWS V13.01,2013-08-05 11:49:00,
2013-08-05 05:54:00,62.1,41.1,30.08,SW,218,0.0,0.0,46,0.00,,FEW140,0.00,VWS V13.01,2013-08-05 11:54:00,
2013-08-05 05:59:00,61.7,41.3,30.08,SW,218,0.0,0.0,47,0.00,,FEW140,0.00,VWS V13.01,2013-08-05 11:59:00,
2013-08-05 06:00:00,61.7,41.3,30.08,SW,218,0.0,0.0,47,0.00,,BKN220,0.00,VWS V13.01,2013-08-05 12:00:00,
2013-08-05 06:05:00,61.5,41.1,30.08,SW,218,0.0,0.0,47,0.00,,FEW140,0.00,VWS V13.01,2013-08-05 12:05:00,
2013-08-05 06:10:00,61.3,41.5,30.08,SW,218,0.0,0.0,48,0.00,,FEW140,0.00,VWS V13.01,2013-08-05 12:10:00,
2013-08-05 06:15:00,61.0,41.2,30.08,SW,219,0.0,0.0,48,0.00,,FEW140,0.00,VWS V13.01,2013-08-05 12:15:00,
2013-08-05 06:20:00,60.8,41.0,30.08,SW,218,0.0,0.0,48,0.00,,SCT160,0.00,VWS V13.01,2013-08-05 12:20:00,
2013-08-05 06:25:00,60.8,41.5,30.08,SW,218,0.0,0.0,49,0.00,,SCT160,0.00,VWS V13.01,2013-08-05 12:25:00,
2013-08-05 06:30:00,61.0,41.7,30.08,SW,218,0.0,0.0,49,0.00,,SCT160,0.00,VWS V13.01,2013-08-05 12:30:00,
2013-08-05 06:35:00,61.3,42.0,30.08,SW,218,0.0,0.0,49,0.00,,SCT160,0.00,VWS V13.01,2013-08-05 12:35:00,
2013-08-05 06:40:00,61.9,42.5,30.08,SW,218,0.0,0.0,49,0.00,,SCT160,0.00,VWS V13.01,2013-08-05 12:40:00,
2013-08-05 06:45:00,62.6,42.7,30.08,SW,218,0.0,0.0,48,0.00,,SCT160,0.00,VWS V13.01,2013-08-05 12:45:00,
2013-08-05 06:50:00,63.1,43.2,30.08,SW,218,0.0,0.0,48,0.00,,SCT160,0.00,VWS V13.01,2013-08-05 12:50:00,
2013-08-05 06:55:00,64.0,43.4,30.08,SW,219,0.0,0.0,47,0.00,,SCT160,0.00,VWS V13.01,2013-08-05 12:55:00,
2013-08-05 07:01:00,64.8,43.5,30.08,SW,218,0.0,0.0,46,0.00,,SCT220,0.00,VWS V13.01,2013-08-05 13:01:00,
2013-08-05 07:07:00,65.3,43.4,30.08,SW,219,0.0,0.0,45,0.00,,SCT220,0.00,VWS V13.01,2013-08-05 13:07:00,
2013-08-05 07:12:00,65.7,43.2,30.11,SW,218,0.0,0.0,44,0.00,,SCT220,0.00,VWS V13.01,2013-08-05 13:12:00,
2013-08-05 07:15:00,66.0,43.5,30.11,SW,218,0.0,0.0,44,0.00,,BKN220,0.00,VWS V13.01,2013-08-05 13:15:00,
2013-08-05 07:17:00,66.6,43.4,30.11,SW,218,0.0,0.0,43,0.00,,SCT220,0.00,VWS V13.01,2013-08-05 13:17:00,
2013-08-05 07:22:00,67.5,44.2,30.11,SW,218,0.0,0.0,43,0.00,,SCT220,0.00,VWS V13.01,2013-08-05 13:22:00,
2013-08-05 07:27:00,67.5,43.6,30.11,SW,218,0.0,0.0,42,0.00,,SCT220,0.00,VWS V13.01,2013-08-05 13:27:00,
2013-08-05 07:30:00,67.5,44.2,30.11,SW,218,0.0,0.0,43,0.00,,BKN220,0.00,VWS V13.01,2013-08-05 13:30:00,
2013-08-05 07:33:00,67.6,44.4,30.11,SW,218,0.0,0.0,43,0.00,,SCT220,0.00,VWS V13.01,2013-08-05 13:33:00,
2013-08-05 07:38:00,67.6,44.4,30.11,SW,218,0.0,0.0,43,0.00,,SCT220,0.00,VWS V13.01,2013-08-05 13:38:00,
2013-08-05 07:43:00,68.0,44.7,30.11,SW,219,0.0,0.0,43,0.00,,SCT220,0.00,VWS V13.01,2013-08-05 13:43:00,
2013-08-05 07:45:00,68.2,44.9,30.11,SW,218,0.0,0.0,43,0.00,,BKN220,0.00,VWS V13.01,2013-08-05 13:45:00,
2013-08-05 07:48:00,68.5,45.2,30.11,SW,218,0.0,0.0,43,0.00,,SCT220,0.00,VWS V13.01,2013-08-05 13:48:00,
2013-08-05 07:53:00,68.7,44.7,30.11,SW,218,0.0,0.0,42,0.00,,SCT220,0.00,VWS V13.01,2013-08-05 13:53:00,
2013-08-05 07:59:00,68.9,44.9,30.11,SW,218,0.0,0.0,42,0.00,,SCT220,0.00,VWS V13.01,2013-08-05 13:59:00,
2013-08-05 08:00:00,69.1,45.0,30.11,SW,218,0.0,0.0,42,0.00,,BKN220,0.00,VWS V13.01,2013-08-05 14:00:00,
2013-08-05 08:04:00,69.6,44.9,30.11,SW,218,0.0,0.0,41,0.00,,SCT220,0.00,VWS V13.01,2013-08-05 14:04:00,
2013-08-05 08:09:00,70.3,44.9,30.11,SW,218,0.0,0.0,40,0.00,,SCT220,0.00,VWS V13.01,2013-08-05 14:09:00,
2013-08-05 08:14:00,71.4,45.2,30.11,SW,218,0.0,0.0,39,0.00,,SCT220,0.00,VWS V13.01,2013-08-05 14:14:00,
2013-08-05 08:15:00,71.4,45.2,30.11,SW,218,0.0,0.0,39,0.00,,BKN220,0.00,VWS V13.01,2013-08-05 14:15:00,
2013-08-05 08:19:00,72.3,45.3,30.11,SW,218,0.0,0.0,38,0.00,,SCT220,0.00,VWS V13.01,2013-08-05 14:19:00,
2013-08-05 08:25:00,72.5,43.3,30.11,SW,218,0.0,0.0,35,0.00,,SCT220,0.00,VWS V13.01,2013-08-05 14:25:00,
2013-08-05 08:30:00,72.7,43.5,30.11,SW,218,0.0,0.0,35,0.00,,SCT220,0.00,VWS V13.01,2013-08-05 14:30:00,
2013-08-05 08:35:00,73.0,44.5,30.11,SW,219,0.0,0.0,36,0.00,,SCT220,0.00,VWS V13.01,2013-08-05 14:35:00,
2013-08-05 08:40:00,73.6,44.3,30.11,SW,218,0.0,0.0,35,0.00,,SCT220,0.00,VWS V13.01,2013-08-05 14:40:00,
2013-08-05 08:45:00,74.3,44.1,30.11,SW,217,0.0,0.0,34,0.00,,SCT220,0.00,VWS V13.01,2013-08-05 14:45:00,
2013-08-05 08:51:00,75.2,44.9,30.11,SW,217,0.0,0.0,34,0.00,,SCT220,0.00,VWS V13.01,2013-08-05 14:51:00,
2013-08-05 08:56:00,75.9,44.8,30.11,SSW,213,2.7,3.1,33,0.00,,SCT220,0.00,VWS V13.01,2013-08-05 14:56:00,
2013-08-05 09:00:00,76.1,43.3,30.11,SSW,213,0.0,3.1,31,0.00,,BKN220,0.00,VWS V13.01,2013-08-05 15:00:00,
2013-08-05 09:01:00,76.3,43.5,30.11,SSW,213,0.0,0.0,31,0.00,,BKN220,0.00,VWS V13.01,2013-08-05 15:01:00,
2013-08-05 09:06:00,76.6,43.8,30.11,South,184,0.0,3.1,31,0.00,,BKN220,0.00,VWS V13.01,2013-08-05 15:06:00,
2013-08-05 09:11:00,77.0,44.1,30.08,South,184,0.0,3.1,31,0.00,,BKN220,0.00,VWS V13.01,2013-08-05 15:11:00,
2013-08-05 09:15:00,77.2,39.7,30.08,ESE,109,4.0,4.0,26,0.00,,BKN220,0.00,VWS V13.01,2013-08-05 15:15:00,
2013-08-05 09:16:00,77.4,39.8,30.08,ESE,106,3.6,4.0,26,0.00,,BKN220,0.00,VWS V13.01,2013-08-05 15:16:00,
2013-08-05 09:21:00,77.5,37.9,30.08,South,175,0.0,4.0,24,0.00,,BKN220,0.00,VWS V13.01,2013-08-05 15:21:00,
2013-08-05 09:26:00,78.3,39.6,30.08,SE,124,0.0,4.0,25,0.00,,BKN220,0.00,VWS V13.01,2013-08-05 15:26:00,
2013-08-05 09:30:00,78.4,39.7,30.08,SE,124,0.0,4.0,25,0.00,,BKN220,0.00,VWS V13.01,2013-08-05 15:30:00,
2013-08-05 09:32:00,78.4,39.7,30.08,SE,124,0.0,0.0,25,0.00,,BKN220,0.00,VWS V13.01,2013-08-05 15:32:00,
2013-08-05 09:37:00,78.8,37.9,30.08,SSW,205,0.0,2.7,23,0.00,,BKN220,0.00,VWS V13.01,2013-08-05 15:37:00,
2013-08-05 09:42:00,79.7,38.7,30.08,East,95,0.0,3.1,23,0.00,,BKN220,0.00,VWS V13.01,2013-08-05 15:42:00,
2013-08-05 09:45:00,80.1,39.0,30.08,East,95,0.0,3.1,23,0.00,,BKN220,0.00,VWS V13.01,2013-08-05 15:45:00,
2013-08-05 09:47:00,80.4,38.1,30.08,East,95,2.2,3.6,22,0.00,,BKN220,0.00,VWS V13.01,2013-08-05 15:47:00,
2013-08-05 09:52:00,81.3,36.5,30.08,East,96,0.0,3.6,20,0.00,,BKN220,0.00,VWS V13.01,2013-08-05 15:52:00,
2013-08-05 09:57:00,82.2,37.2,30.08,East,96,0.0,3.6,20,0.00,,BKN220,0.00,VWS V13.01,2013-08-05 15:57:00,
2013-08-05 10:00:00,82.4,36.0,30.08,East,96,0.0,3.6,19,0.00,,BKN220,0.00,VWS V13.01,2013-08-05 16:00:00,
2013-08-05 10:02:00,82.4,36.0,30.08,East,96,0.0,0.0,19,0.00,,BKN220,0.00,VWS V13.01,2013-08-05 16:02:00,
2013-08-05 10:08:00,82.2,37.2,30.08,West,273,0.0,3.6,20,0.00,,BKN220,0.00,VWS V13.01,2013-08-05 16:08:00,
2013-08-05 10:12:00,82.4,36.0,30.08,ENE,71,0.0,3.6,19,0.00,,BKN220,0.00,VWS V13.01,2013-08-05 16:12:00,
2013-08-05 10:15:00,82.8,36.3,30.08,WNW,299,2.7,3.6,19,0.00,,BKN220,0.00,VWS V13.01,2013-08-05 16:15:00,
2013-08-05 10:18:00,82.9,36.5,30.08,NE,41,0.0,3.1,19,0.00,,BKN220,0.00,VWS V13.01,2013-08-05 16:18:00,
2013-08-05 10:23:00,83.3,36.8,30.08,ENE,75,3.6,4.0,19,0.00,,BKN220,0.00,VWS V13.01,2013-08-05 16:23:00,
2013-08-05 10:28:00,84.0,37.4,30.08,NE,35,0.0,4.0,19,0.00,,BKN220,0.00,VWS V13.01,2013-08-05 16:28:00,
2013-08-05 10:30:00,84.4,37.7,30.08,East,86,0.0,4.0,19,0.00,,BKN220,0.00,VWS V13.01,2013-08-05 16:30:00,
2013-08-05 10:33:00,84.7,38.0,30.08,ESE,104,2.7,3.1,19,0.00,,BKN220,0.00,VWS V13.01,2013-08-05 16:33:00,
2013-08-05 10:38:00,84.7,36.6,30.08,ENE,75,5.4,5.8,18,0.00,,BKN220,0.00,VWS V13.01,2013-08-05 16:38:00,
2013-08-05 10:43:00,84.9,38.1,30.11,ENE,74,0.0,5.8,19,0.00,,BKN220,0.00,VWS V13.01,2013-08-05 16:43:00,
2013-08-05 10:45:00,84.9,38.1,30.11,East,84,2.7,5.8,19,0.00,,BKN220,0.00,VWS V13.01,2013-08-05 16:45:00,
2013-08-05 10:48:00,85.3,38.4,30.11,East,89,0.0,4.9,19,0.00,,BKN220,0.00,VWS V13.01,2013-08-05 16:48:00,
2013-08-05 10:53:00,85.8,37.5,30.11,ENE,62,0.0,4.9,18,0.00,,BKN220,0.00,VWS V13.01,2013-08-05 16:53:00,
2013-08-05 10:58:00,85.8,34.5,30.11,NE,53,0.0,5.4,16,0.00,,BKN220,0.00,VWS V13.01,2013-08-05 16:58:00,
2013-08-05 11:00:00,85.6,34.3,30.11,SW,223,2.2,5.4,16,0.00,,BKN220,0.00,VWS V13.01,2013-08-05 17:00:00,
2013-08-05 11:03:00,85.5,34.2,30.11,North,7,0.0,3.6,16,0.00,,BKN220,0.00,VWS V13.01,2013-08-05 17:03:00,
2013-08-05 11:09:00,84.9,33.8,30.11,NE,49,2.7,5.8,16,0.00,,BKN220,0.00,VWS V13.01,2013-08-05 17:09:00,
2013-08-05 11:14:00,85.1,33.9,30.11,ENE,69,4.9,5.8,16,0.00,,BKN220,0.00,VWS V13.01,2013-08-05 17:14:00,
2013-08-05 11:15:00,85.1,33.9,30.11,East,94,5.4,5.8,16,0.00,,BKN220,0.00,VWS V13.01,2013-08-05 17:15:00,
2013-08-05 11:19:00,85.6,34.3,30.11,NE,37,2.7,5.4,16,0.00,,BKN220,0.00,VWS V13.01,2013-08-05 17:19:00,
2013-08-05 11:24:00,86.0,29.5,30.11,ENE,72,0.0,5.4,13,0.00,,BKN220,0.00,VWS V13.01,2013-08-05 17:24:00,
2013-08-05 11:29:00,86.4,34.9,30.11,East,79,3.1,5.4,16,0.00,,BKN220,0.00,VWS V13.01,2013-08-05 17:29:00,
2013-08-05 11:30:00,86.4,29.8,30.11,NNE,20,6.3,6.3,13,0.00,,BKN220,0.00,VWS V13.01,2013-08-05 17:30:00,
2013-08-05 11:34:00,86.5,29.9,30.11,ENE,77,3.1,6.3,13,0.00,,BKN220,0.00,VWS V13.01,2013-08-05 17:34:00,
2013-08-05 11:39:00,86.2,29.6,30.11,ENE,77,3.1,6.3,13,0.00,,BKN220,0.00,VWS V13.01,2013-08-05 17:39:00,
2013-08-05 11:44:00,86.0,25.4,30.11,ENE,72,3.1,7.6,11,0.00,,BKN220,0.00,VWS V13.01,2013-08-05 17:44:00,
2013-08-05 11:45:00,86.0,25.4,30.11,ENE,69,3.6,7.6,11,0.00,,BKN220,0.00,VWS V13.01,2013-08-05 17:45:00,
2013-08-05 11:50:00,86.0,25.4,30.11,ESE,109,0.0,4.0,11,0.00,,BKN220,0.00,VWS V13.01,2013-08-05 17:50:00,
2013-08-05 11:55:00,86.0,29.5,30.11,NNE,25,0.0,5.4,13,0.00,,BKN220,0.00,VWS V13.01,2013-08-05 17:55:00,
2013-08-05 12:00:00,86.0,25.4,30.11,NE,47,0.0,2.7,11,0.00,,BKN220,0.00,VWS V13.01,2013-08-05 18:00:00,
2013-08-05 12:05:00,86.2,25.6,30.11,ESE,103,2.7,4.9,11,0.00,,BKN220,0.00,VWS V13.01,2013-08-05 18:05:00,
2013-08-05 12:10:00,86.5,25.9,30.11,NE,41,3.6,4.9,11,0.00,,BKN220,0.00,VWS V13.01,2013-08-05 18:10:00,
2013-08-05 12:15:00,86.9,26.1,30.11,NNW,340,4.0,4.0,11,0.00,,BKN220,0.00,VWS V13.01,2013-08-05 18:15:00,
2013-08-05 12:20:00,86.5,25.9,30.11,East,87,4.0,7.2,11,0.00,,BKN220,0.00,VWS V13.01,2013-08-05 18:20:00,
2013-08-05 12:25:00,85.5,25.0,30.11,NE,56,0.0,8.3,11,0.00,,BKN220,0.00,VWS V13.01,2013-08-05 18:25:00,
2013-08-05 12:30:00,85.6,25.2,30.11,NE,42,2.7,3.6,11,0.00,,BKN220,0.00,VWS V13.01,2013-08-05 18:30:00,
2013-08-05 12:35:00,86.4,25.7,30.11,East,90,3.1,6.7,11,0.00,,BKN220,0.00,VWS V13.01,2013-08-05 18:35:00,
2013-08-05 12:40:00,85.8,25.3,30.11,ENE,76,4.0,8.7,11,0.00,,BKN220,0.00,VWS V13.01,2013-08-05 18:40:00,
2013-08-05 12:45:00,85.6,25.2,30.11,East,87,4.0,4.0,11,0.00,,BKN220,0.00,VWS V13.01,2013-08-05 18:45:00,
2013-08-05 12:50:00,86.2,25.6,30.11,WSW,251,3.6,8.3,11,0.00,,BKN220,0.00,VWS V13.01,2013-08-05 18:50:00,
2013-08-05 12:56:00,86.2,25.6,30.11,ESE,110,3.6,8.3,11,0.00,,BKN220,0.00,VWS V13.01,2013-08-05 18:56:00,
2013-08-05 13:00:00,86.4,25.7,30.11,NE,55,4.9,8.3,11,0.00,,BKN220,0.00,VWS V13.01,2013-08-05 19:00:00,
2013-08-05 13:01:00,86.4,25.7,30.11,ENE,74,6.3,6.3,11,0.00,,BKN220,0.00,VWS V13.01,2013-08-05 19:01:00,
2013-08-05 13:06:00,86.4,25.7,30.11,ENE,62,6.3,8.3,11,0.00,,BKN220,0.00,VWS V13.01,2013-08-05 19:06:00,
2013-08-05 13:11:00,86.4,25.7,30.08,ENE,69,2.7,8.3,11,0.00,,BKN220,0.00,VWS V13.01,2013-08-05 19:11:00,
2013-08-05 13:15:00,86.2,25.6,30.08,West,276,0.0,8.3,11,0.00,,BKN220,0.00,VWS V13.01,2013-08-05 19:15:00,
2013-08-05 13:17:00,86.5,25.9,30.08,ENE,69,2.7,3.1,11,0.00,,BKN220,0.00,VWS V13.01,2013-08-05 19:17:00,
2013-08-05 13:22:00,87.4,26.5,30.08,ENE,75,3.6,5.8,11,0.00,,BKN220,0.00,VWS V13.01,2013-08-05 19:22:00,
2013-08-05 13:27:00,87.1,26.3,30.08,ESE,109,3.1,5.8,11,0.00,,BKN220,0.00,VWS V13.01,2013-08-05 19:27:00,
2013-08-05 13:30:00,86.7,26.0,30.08,ESE,105,4.9,6.3,11,0.00,,BKN220,0.00,VWS V13.01,2013-08-05 19:30:00,
2013-08-05 13:32:00,85.8,25.3,30.08,East,93,3.1,4.9,11,0.00,,BKN220,0.00,VWS V13.01,2013-08-05 19:32:00,
2013-08-05 13:38:00,85.3,24.9,30.08,SE,145,4.0,6.3,11,0.00,,BKN220,0.00,VWS V13.01,2013-08-05 19:38:00,
2013-08-05 13:43:00,85.6,25.2,30.08,SSE,159,3.6,7.6,11,0.00,,BKN220,0.00,VWS V13.01,2013-08-05 19:43:00,
2013-08-05 13:45:00,85.8,25.3,30.08,ESE,115,3.1,7.6,11,0.00,,BKN220,0.00,VWS V13.01,2013-08-05 19:45:00,
2013-08-05 13:48:00,86.4,25.7,30.08,ESE,115,5.4,6.3,11,0.00,,BKN220,0.00,VWS V13.01,2013-08-05 19:48:00,
2013-08-05 13:53:00,86.5,25.9,30.08,ENE,63,4.9,6.3,11,0.00,,BKN220,0.00,VWS V13.01,2013-08-05 19:53:00,
2013-08-05 13:58:00,86.9,26.1,30.08,ENE,65,5.4,7.2,11,0.00,,BKN220,0.00,VWS V13.01,2013-08-05 19:58:00,
2013-08-05 14:00:00,86.9,26.1,30.08,ENE,64,8.3,8.7,11,0.00,,BKN220,0.00,VWS V13.01,2013-08-05 20:00:00,
2013-08-05 14:03:00,86.4,25.7,30.08,East,84,8.1,8.3,11,0.00,,BKN220,0.00,VWS V13.01,2013-08-05 20:03:00,
2013-08-05 14:09:00,86.2,25.6,30.08,ENE,66,3.1,8.3,11,0.00,,BKN220,0.00,VWS V13.01,2013-08-05 20:09:00,
2013-08-05 14:14:00,86.2,25.6,30.08,East,81,0.0,8.3,11,0.00,,BKN220,0.00,VWS V13.01,2013-08-05 20:14:00,
2013-08-05 14:15:00,86.2,25.6,30.08,East,81,0.0,8.3,11,0.00,,BKN220,0.00,VWS V13.01,2013-08-05 20:15:00,
2013-08-05 14:19:00,86.2,25.6,30.08,West,272,2.2,3.6,11,0.00,,BKN220,0.00,VWS V13.01,2013-08-05 20:19:00,
2013-08-05 14:25:00,86.7,26.0,30.08,WNW,291,2.7,3.6,11,0.00,,BKN220,0.00,VWS V13.01,2013-08-05 20:25:00,
2013-08-05 14:30:00,86.4,25.7,30.08,WNW,288,0.0,3.6,11,0.00,,BKN220,0.00,VWS V13.01,2013-08-05 20:30:00,
2013-08-05 14:35:00,86.0,25.4,30.08,East,79,2.7,4.0,11,0.00,,BKN220,0.00,VWS V13.01,2013-08-05 20:35:00,
2013-08-05 14:40:00,85.3,24.9,30.08,East,91,0.0,4.0,11,0.00,,BKN220,0.00,VWS V13.01,2013-08-05 20:40:00,
2013-08-05 14:45:00,85.3,24.9,30.08,East,91,0.0,0.0,11,0.00,,BKN220,0.00,VWS V13.01,2013-08-05 20:45:00,
2013-08-05 14:50:00,85.1,24.7,30.08,ENE,61,0.0,3.1,11,0.00,,BKN220,0.00,VWS V13.01,2013-08-05 20:50:00,
2013-08-05 14:55:00,84.7,24.5,30.05,ESE,113,0.0,3.1,11,0.00,,BKN220,0.00,VWS V13.01,2013-08-05 20:55:00,
2013-08-05 15:00:00,85.1,24.7,30.05,ESE,113,0.0,0.0,11,0.00,,BKN220,0.00,VWS V13.01,2013-08-05 21:00:00,
2013-08-05 15:05:00,85.3,24.9,30.05,ESE,112,0.0,0.0,11,0.00,,BKN220,0.00,VWS V13.01,2013-08-05 21:05:00,
2013-08-05 15:10:00,85.1,24.7,30.05,ESE,112,0.0,0.0,11,0.00,,BKN220,0.00,VWS V13.01,2013-08-05 21:10:00,
2013-08-05 15:15:00,85.3,24.9,30.05,ENE,70,0.0,3.6,11,0.00,,BKN220,0.00,VWS V13.01,2013-08-05 21:15:00,
2013-08-05 15:21:00,85.3,24.9,30.05,ENE,70,0.0,3.6,11,0.00,,BKN220,0.00,VWS V13.01,2013-08-05 21:21:00,
2013-08-05 15:26:00,85.6,25.2,30.05,ENE,70,0.0,3.6,11,0.00,,BKN220,0.00,VWS V13.01,2013-08-05 21:26:00,
2013-08-05 15:30:00,85.6,25.2,30.05,ENE,70,0.0,3.6,11,0.00,,BKN220,0.00,VWS V13.01,2013-08-05 21:30:00,
2013-08-05 15:31:00,85.5,25.0,30.05,ESE,111,3.6,3.6,11,0.00,,BKN220,0.00,VWS V13.01,2013-08-05 21:31:00,
2013-08-05 15:36:00,85.1,24.7,30.05,ESE,111,0.0,3.6,11,0.00,,BKN220,0.00,VWS V13.01,2013-08-05 21:36:00,
2013-08-05 15:41:00,84.9,24.6,30.05,West,278,3.6,3.6,11,0.00,,BKN220,0.00,VWS V13.01,2013-08-05 21:41:00,
2013-08-05 15:45:00,84.6,24.3,30.05,WNW,285,2.7,3.6,11,0.00,,BKN220,0.00,VWS V13.01,2013-08-05 21:45:00,
2013-08-05 15:46:00,84.6,24.3,30.05,WNW,286,0.0,2.7,11,0.00,,BKN220,0.00,VWS V13.01,2013-08-05 21:46:00,
2013-08-05 15:51:00,84.4,24.2,30.05,West,281,0.0,2.7,11,0.00,,BKN220,0.00,VWS V13.01,2013-08-05 21:51:00,
2013-08-05 15:56:00,84.4,24.2,30.05,WNW,292,3.6,4.0,11,0.00,,BKN220,0.00,VWS V13.01,2013-08-05 21:56:00,
2013-08-05 16:02:00,84.4,24.2,30.05,WNW,294,3.1,4.0,11,0.00,,BKN220,0.00,VWS V13.01,2013-08-05 22:02:00,
2013-08-05 16:07:00,83.8,29.6,30.05,West,259,5.4,8.1,14,0.00,,BKN220,0.00,VWS V13.01,2013-08-05 22:07:00,
2013-08-05 16:12:00,83.7,29.5,30.05,West,270,4.0,8.1,14,0.00,,BKN220,0.00,VWS V13.01,2013-08-05 22:12:00,
2013-08-05 16:17:00,83.5,29.3,30.05,WNW,292,2.7,5.8,14,0.00,,BKN220,0.00,VWS V13.01,2013-08-05 22:17:00,
2013-08-05 16:22:00,83.7,29.5,30.05,SW,230,4.0,5.8,14,0.00,,BKN220,0.00,VWS V13.01,2013-08-05 22:22:00,
2013-08-05 16:27:00,84.0,33.0,30.05,WSW,253,3.6,6.3,16,0.00,,BKN220,0.00,VWS V13.01,2013-08-05 22:27:00,
2013-08-05 16:30:00,84.0,33.0,30.05,SW,226,4.0,6.3,16,0.00,,BKN220,0.00,VWS V13.01,2013-08-05 22:30:00,
2013-08-05 16:32:00,83.7,29.5,30.05,WSW,253,12.3,12.3,14,0.00,,BKN220,0.00,VWS V13.01,2013-08-05 22:32:00,
2013-08-05 16:37:00,82.9,28.9,30.05,West,261,4.9,12.3,14,0.00,,BKN220,0.00,VWS V13.01,2013-08-05 22:37:00,
2013-08-05 16:42:00,82.2,28.3,30.05,WNW,287,3.1,12.3,14,0.00,,BKN220,0.00,VWS V13.01,2013-08-05 22:42:00,
2013-08-05 16:45:00,82.0,28.2,30.05,SW,224,4.9,12.3,14,0.00,,BKN220,0.00,VWS V13.01,2013-08-05 22:45:00,
2013-08-05 16:47:00,81.9,28.0,30.05,WSW,255,5.8,7.6,14,0.00,,BKN220,0.00,VWS V13.01,2013-08-05 22:47:00,
2013-08-05 16:52:00,81.7,27.9,30.05,WSW,254,3.1,8.3,14,0.00,,BKN220,0.00,VWS V13.01,2013-08-05 22:52:00,
2013-08-05 16:57:00,81.3,27.6,30.05,West,268,3.6,10.1,14,0.00,,BKN220,0.00,VWS V13.01,2013-08-05 22:57:00,
2013-08-05 17:00:00,81.1,27.5,30.05,WNW,290,5.8,10.5,14,0.00,,BKN220,0.00,VWS V13.01,2013-08-05 23:00:00,
2013-08-05 17:02:00,81.0,27.3,30.05,WNW,294,8.1,8.1,14,0.00,,BKN220,0.00,VWS V13.01,2013-08-05 23:02:00,
2013-08-05 17:08:00,80.8,27.2,30.05,NW,312,5.8,10.5,14,0.00,,BKN220,0.00,VWS V13.01,2013-08-05 23:08:00,
2013-08-05 17:13:00,80.4,28.6,30.08,NNW,327,4.5,10.5,15,0.00,,BKN220,0.00,VWS V13.01,2013-08-05 23:13:00,
2013-08-05 17:15:00,80.4,28.6,30.08,SW,229,8.3,10.5,15,0.00,,BKN220,0.00,VWS V13.01,2013-08-05 23:15:00,
2013-08-05 17:18:00,80.2,28.4,30.08,NW,306,3.1,11.0,15,0.00,,BKN220,0.00,VWS V13.01,2013-08-05 23:18:00,
2013-08-05 17:23:00,80.1,28.3,30.08,WNW,283,2.7,14.1,15,0.00,,BKN220,0.00,VWS V13.01,2013-08-05 23:23:00,
2013-08-05 17:28:00,79.9,28.1,30.05,NNW,331,6.3,14.1,15,0.00,,BKN220,0.00,VWS V13.01,2013-08-05 23:28:00,
2013-08-05 17:30:00,79.9,28.1,30.05,WNW,290,2.2,14.1,15,0.00,,BKN220,0.00,VWS V13.01,2013-08-05 23:30:00,
2013-08-05 17:34:00,79.9,28.1,30.05,WNW,283,4.0,7.2,15,0.00,,BKN220,0.00,VWS V13.01,2013-08-05 23:34:00,
2013-08-05 17:39:00,79.7,28.0,30.05,NNW,336,2.2,8.3,15,0.00,,BKN220,0.00,VWS V13.01,2013-08-05 23:39:00,
2013-08-05 17:44:00,79.5,27.9,30.05,WNW,298,6.3,8.3,15,0.00,,BKN220,0.00,VWS V13.01,2013-08-05 23:44:00,
2013-08-05 17:45:00,79.3,27.7,30.05,WNW,288,3.6,8.3,15,0.00,,BKN220,0.00,VWS V13.01,2013-08-05 23:45:00,
2013-08-05 17:49:00,79.2,30.6,30.05,WNW,298,3.1,3.6,17,0.00,,BKN220,0.00,VWS V13.01,2013-08-05 23:49:00,
2013-08-05 17:55:00,79.0,30.5,30.05,NW,322,2.7,6.3,17,0.00,,BKN220,0.00,VWS V13.01,2013-08-05 23:55:00,
2013-08-05 18:00:00,78.6,31.6,30.05,WNW,286,3.1,3.1,18,0.00,,BKN220,0.00,VWS V13.01,2013-08-06 00:00:00,
2013-08-05 18:05:00,78.3,33.9,30.05,WNW,286,3.1,8.3,20,0.00,,BKN220,0.00,VWS V13.01,2013-08-06 00:05:00,
2013-08-05 18:10:00,78.1,33.8,30.05,NNE,16,2.2,8.3,20,0.00,,BKN220,0.00,VWS V13.01,2013-08-06 00:10:00,
2013-08-05 18:15:00,77.9,33.6,30.05,East,82,0.0,0.0,20,0.00,,BKN220,0.00,VWS V13.01,2013-08-06 00:15:00,
2013-08-05 18:20:00,77.9,33.6,30.05,ENE,64,3.1,5.8,20,0.00,,BKN220,0.00,VWS V13.01,2013-08-06 00:20:00,
2013-08-05 18:25:00,77.4,34.4,30.05,North,357,2.2,13.2,21,0.00,,BKN220,0.00,VWS V13.01,2013-08-06 00:25:00,
2013-08-05 18:30:00,76.6,35.0,30.05,East,90,2.7,13.2,22,0.00,,BKN220,0.00,VWS V13.01,2013-08-06 00:30:00,
2013-08-05 18:35:00,76.1,35.7,30.05,West,278,0.0,2.7,23,0.00,,BKN220,0.00,VWS V13.01,2013-08-06 00:35:00,
2013-08-05 18:40:00,75.9,35.5,30.05,East,82,0.0,2.7,23,0.00,,BKN220,0.00,VWS V13.01,2013-08-06 00:40:00,
2013-08-05 18:45:00,75.9,35.5,30.05,ENE,57,3.6,4.0,23,0.00,,BKN220,0.00,VWS V13.01,2013-08-06 00:45:00,
2013-08-05 18:46:00,75.9,35.5,30.05,ENE,68,4.0,4.9,23,0.00,,BKN220,0.00,VWS V13.01,2013-08-06 00:46:00,
2013-08-05 18:51:00,75.9,35.5,30.05,West,268,2.7,6.3,23,0.00,,BKN220,0.00,VWS V13.01,2013-08-06 00:51:00,
2013-08-05 18:56:00,75.7,35.3,30.05,NNW,342,0.0,7.6,23,0.00,,BKN220,0.00,VWS V13.01,2013-08-06 00:56:00,
2013-08-05 19:00:00,75.7,36.4,30.05,ENE,75,0.0,7.6,24,0.00,,BKN220,0.00,VWS V13.01,2013-08-06 01:00:00,
2013-08-05 19:01:00,75.6,36.3,30.05,ENE,76,0.0,0.0,24,0.00,,BKN220,0.00,VWS V13.01,2013-08-06 01:01:00,
2013-08-05 19:06:00,75.6,36.3,30.05,ENE,64,3.6,8.7,24,0.00,,BKN220,0.00,VWS V13.01,2013-08-06 01:06:00,
2013-08-05 19:11:00,74.5,40.2,30.05,North,5,0.0,8.7,29,0.00,,BKN220,0.00,VWS V13.01,2013-08-06 01:11:00,
2013-08-05 19:15:00,73.0,41.5,30.05,NE,43,0.0,8.7,32,0.00,,BKN220,0.00,VWS V13.01,2013-08-06 01:15:00,
2013-08-05 19:16:00,72.9,42.1,30.05,NE,43,0.0,0.0,33,0.00,,BKN220,0.00,VWS V13.01,2013-08-06 01:16:00,
2013-08-05 19:27:00,71.2,43.7,30.08,ENE,60,4.0,4.0,37,0.00,,BKN220,0.00,VWS V13.01,2013-08-06 01:27:00,
2013-08-05 19:32:00,71.1,44.2,30.08,East,90,3.1,5.8,38,0.00,,BKN220,0.00,VWS V13.01,2013-08-06 01:32:00,
2013-08-05 19:37:00,71.1,44.2,30.08,NNE,32,5.8,5.8,38,0.00,,BKN220,0.00,VWS V13.01,2013-08-06 01:37:00,
2013-08-05 19:42:00,71.2,45.0,30.08,ESE,114,2.7,6.3,39,0.00,,BKN220,0.00,VWS V13.01,2013-08-06 01:42:00,
2013-08-05 19:47:00,71.1,45.5,30.08,ENE,58,3.1,5.8,40,0.00,,BKN220,0.00,VWS V13.01,2013-08-06 01:47:00,
2013-08-05 19:52:00,71.1,45.5,30.08,ENE,61,2.7,8.1,40,0.00,,BKN220,0.00,VWS V13.01,2013-08-06 01:52:00,
2013-08-05 19:57:00,70.9,44.7,30.08,East,81,3.6,8.1,39,0.00,,BKN220,0.00,VWS V13.01,2013-08-06 01:57:00,
2013-08-05 20:02:00,71.1,44.9,30.08,East,83,0.0,3.1,39,0.00,,BKN220,0.00,VWS V13.01,2013-08-06 02:02:00,
2013-08-05 20:07:00,71.1,44.2,30.08,East,92,0.0,3.1,38,0.00,,BKN220,0.00,VWS V13.01,2013-08-06 02:07:00,
2013-08-05 20:12:00,71.1,44.2,30.11,East,101,0.0,4.0,38,0.00,,BKN220,0.00,VWS V13.01,2013-08-06 02:12:00,
2013-08-05 20:17:00,71.1,43.5,30.11,East,101,0.0,0.0,37,0.00,,BKN220,0.00,VWS V13.01,2013-08-06 02:17:00,
2013-08-05 20:22:00,70.9,44.0,30.11,East,101,0.0,0.0,38,0.00,,BKN220,0.00,VWS V13.01,2013-08-06 02:22:00,
2013-08-05 20:27:00,70.7,44.5,30.11,East,101,0.0,0.0,39,0.00,,BKN220,0.00,VWS V13.01,2013-08-06 02:27:00,
2013-08-05 20:32:00,70.5,44.4,30.11,East,101,0.0,0.0,39,0.00,,BKN220,0.00,VWS V13.01,2013-08-06 02:32:00,
2013-08-05 20:38:00,70.3,46.2,30.11,East,101,2.2,3.1,42,0.00,,BKN220,0.00,VWS V13.01,2013-08-06 02:38:00,
2013-08-05 20:43:00,70.3,46.2,30.11,East,101,0.0,3.1,42,0.00,,BKN220,0.00,VWS V13.01,2013-08-06 02:43:00,
2013-08-05 20:48:00,70.2,46.0,30.11,East,101,0.0,0.0,42,0.00,,BKN220,0.00,VWS V13.01,2013-08-06 02:48:00,
2013-08-05 20:53:00,70.2,46.0,30.11,East,101,0.0,0.0,42,0.00,,BKN220,0.00,VWS V13.01,2013-08-06 02:53:00,
2013-08-05 20:58:00,70.2,45.4,30.11,ENE,77,0.0,2.7,41,0.00,,BKN220,0.00,VWS V13.01,2013-08-06 02:58:00,
2013-08-05 21:03:00,70.0,45.9,30.11,ENE,77,0.0,0.0,42,0.00,,BKN220,0.00,VWS V13.01,2013-08-06 03:03:00,
2013-08-05 21:08:00,69.8,45.7,30.11,ENE,77,0.0,0.0,42,0.00,,BKN220,0.00,VWS V13.01,2013-08-06 03:08:00,
2013-08-05 21:14:00,69.4,46.0,30.11,ENE,77,0.0,0.0,43,0.00,,BKN220,0.00,VWS V13.01,2013-08-06 03:14:00,
2013-08-05 21:19:00,69.1,45.7,30.11,ENE,77,0.0,0.0,43,0.00,,BKN220,0.00,VWS V13.01,2013-08-06 03:19:00,
2013-08-05 21:24:00,68.7,46.0,30.11,ENE,77,0.0,0.0,44,0.00,,BKN220,0.00,VWS V13.01,2013-08-06 03:24:00,
2013-08-05 21:29:00,68.4,45.6,30.11,ENE,77,0.0,0.0,44,0.00,,BKN220,0.00,VWS V13.01,2013-08-06 03:29:00,
2013-08-05 21:34:00,68.0,45.9,30.11,ENE,77,0.0,0.0,45,0.00,,BKN220,0.00,VWS V13.01,2013-08-06 03:34:00,
2013-08-05 21:39:00,67.6,46.1,30.11,ENE,77,0.0,0.0,46,0.00,,BKN220,0.00,VWS V13.01,2013-08-06 03:39:00,
2013-08-05 21:45:00,67.3,45.8,30.11,ENE,77,0.0,0.0,46,0.00,,BKN220,0.00,VWS V13.01,2013-08-06 03:45:00,
2013-08-05 21:50:00,66.9,46.0,30.11,ENE,77,0.0,0.0,47,0.00,,BKN220,0.00,VWS V13.01,2013-08-06 03:50:00,
2013-08-05 21:55:00,66.6,46.3,30.11,ENE,77,0.0,0.0,48,0.00,,BKN220,0.00,VWS V13.01,2013-08-06 03:55:00,
2013-08-05 22:00:00,66.4,46.1,30.11,ENE,77,0.0,0.0,48,0.00,,BKN220,0.00,VWS V13.01,2013-08-06 04:00:00,
2013-08-05 22:01:00,66.4,46.1,30.11,ENE,77,0.0,0.0,48,0.00,,BKN220,0.00,VWS V13.01,2013-08-06 04:01:00,
2013-08-05 22:06:00,66.4,46.1,30.11,ENE,77,0.0,0.0,48,0.00,,BKN220,0.00,VWS V13.01,2013-08-06 04:06:00,
2013-08-05 22:11:00,66.4,46.7,30.11,ENE,77,0.0,0.0,49,0.00,,BKN220,0.00,VWS V13.01,2013-08-06 04:11:00,
2013-08-05 22:16:00,66.4,46.7,30.11,ENE,78,0.0,0.0,49,0.00,,BKN220,0.00,VWS V13.01,2013-08-06 04:16:00,
2013-08-05 22:21:00,66.2,46.5,30.11,ENE,77,0.0,0.0,49,0.00,,BKN220,0.00,VWS V13.01,2013-08-06 04:21:00,
2013-08-05 22:26:00,66.0,46.9,30.08,ENE,77,0.0,0.0,50,0.00,,BKN220,0.00,VWS V13.01,2013-08-06 04:26:00,
2013-08-05 22:31:00,65.8,47.2,30.08,ENE,77,0.0,0.0,51,0.00,,BKN220,0.00,VWS V13.01,2013-08-06 04:31:00,
2013-08-05 22:36:00,65.8,47.2,30.08,ENE,77,0.0,0.0,51,0.00,,BKN220,0.00,VWS V13.01,2013-08-06 04:36:00,
2013-08-05 22:41:00,65.7,47.6,30.11,ENE,77,0.0,0.0,52,0.00,,BKN220,0.00,VWS V13.01,2013-08-06 04:41:00,
2013-08-05 22:46:00,66.0,48.4,30.11,ENE,77,0.0,0.0,53,0.00,,BKN220,0.00,VWS V13.01,2013-08-06 04:46:00,
2013-08-05 22:51:00,66.2,47.6,30.11,ENE,77,0.0,0.0,51,0.00,,BKN220,0.00,VWS V13.01,2013-08-06 04:51:00,
2013-08-05 22:56:00,66.2,47.6,30.08,ENE,77,0.0,0.0,51,0.00,,BKN220,0.00,VWS V13.01,2013-08-06 04:56:00,
2013-08-05 23:01:00,66.0,47.4,30.08,ENE,77,0.0,0.0,51,0.00,,BKN220,0.00,VWS V13.01,2013-08-06 05:01:00,
2013-08-05 23:06:00,65.5,47.4,30.08,ENE,77,0.0,0.0,52,0.00,,BKN220,0.00,VWS V13.01,2013-08-06 05:06:00,
2013-08-05 23:11:00,65.3,47.8,30.08,ENE,77,0.0,0.0,53,0.00,,BKN220,0.00,VWS V13.01,2013-08-06 05:11:00,
2013-08-05 23:16:00,65.3,47.8,30.08,SE,136,0.0,0.0,53,0.00,,BKN220,0.00,VWS V13.01,2013-08-06 05:16:00,
2013-08-05 23:21:00,65.5,47.9,30.08,SE,125,0.0,3.1,53,0.00,,BKN220,0.00,VWS V13.01,2013-08-06 05:21:00,
2013-08-05 23:26:00,65.8,47.7,30.08,WSW,253,2.2,3.6,52,0.00,,BKN220,0.00,VWS V13.01,2013-08-06 05:26:00,
2013-08-05 23:31:00,66.2,47.0,30.08,West,265,3.6,4.0,50,0.00,,BKN220,0.00,VWS V13.01,2013-08-06 05:31:00,
2013-08-05 23:36:00,66.6,46.8,30.08,SSE,147,2.7,4.5,49,0.00,,BKN220,0.00,VWS V13.01,2013-08-06 05:36:00,
2013-08-05 23:41:00,66.6,46.8,30.08,SE,139,2.7,4.5,49,0.00,,BKN220,0.00,VWS V13.01,2013-08-06 05:41:00,
2013-08-05 23:46:00,66.6,46.3,30.08,SE,141,2.7,2.7,48,0.00,,BKN220,0.00,VWS V13.01,2013-08-06 05:46:00,
2013-08-05 23:51:00,66.2,46.0,30.08,South,170,0.0,4.0,48,0.00,,BKN220,0.00,VWS V13.01,2013-08-06 05:51:00,
2013-08-05 23:56:00,66.2,46.0,30.08,SE,144,0.0,4.0,48,0.00,,BKN220,0.00,VWS V13.01,2013-08-06 05:56:00,